{"data":{"norad_id":67482,"intl_designator":"2025-313BE","name":"TRISAT-4","alt_names":[],"object_type":"PAYLOAD","status":"ACTIVE","operator":null,"country":"CIS","launch_date":"2025-12-28","launch_site_code":"VOSTO","launch_vehicle":null,"mission":null,"orbit_class":"UNKNOWN","rcs_meters":null,"size_class":null,"mass_kg":null,"dimensions":null,"purposes":[],"wikipedia_slug":null,"has_3d_model":false,"image_url":null,"decayed_at":null,"tle_current":{"epoch":"2026-08-19T04:10:57.547488Z","epoch_age_seconds":2889531,"freshness":"OLD","line1":"1 67482U 25313BE  26231.17427717  .01297284  89973-3  26073-2 0  9993","line2":"2 67482  97.3670 311.8103 0010784 264.2748  95.7300 15.99807030 33137","mean_motion":15.9980703,"eccentricity":0.0010784,"inclination_deg":97.367,"raan_deg":311.8103,"arg_perigee_deg":264.2748,"mean_anomaly_deg":95.73,"bstar":0.0026073,"rev_number":3313,"period_min":90.010855871786,"perigee_km":267.7789553351,"apogee_km":282.12834124533,"semimajor_km":6653.0906482902,"source":"CELESTRAK","updated_at":"2026-08-25T09:00:37.264236Z"}}}